Time,TemperatureF,DewpointF,PressureIn,WindDirection,WindDirectionDegrees,WindSpeedMPH,WindSpeedGustMPH,Humidity,HourlyPrecipIn,Conditions,Clouds,dailyrainin,SoftwareType,DateUTC
2013-06-28 00:00:00,73.0,70.9,29.76,N/A,-737280,0.0,-999.0,93,0.00,,,0.01,Wunderground v.1.15,2013-06-28 04:00:00,
2013-06-28 00:05:00,73.0,70.9,29.76,N/A,-737280,0.0,-999.0,93,0.00,,,0.01,Wunderground v.1.15,2013-06-28 04:05:00,
2013-06-28 00:10:00,73.0,70.9,29.76,WNW,293,0.0,-999.0,93,0.00,,,0.01,Wunderground v.1.15,2013-06-28 04:10:00,
2013-06-28 00:15:00,73.0,70.9,29.76,WNW,293,0.0,-999.0,93,0.00,,,0.01,Wunderground v.1.15,2013-06-28 04:15:00,
2013-06-28 00:20:00,73.3,71.2,29.76,NW,315,0.0,-999.0,93,0.00,,,0.01,Wunderground v.1.15,2013-06-28 04:20:00,
2013-06-28 00:25:00,73.4,70.9,29.76,N/A,-737280,0.0,-999.0,92,0.00,,,0.01,Wunderground v.1.15,2013-06-28 04:25:00,
2013-06-28 00:30:00,73.4,70.9,29.76,NW,315,0.0,-999.0,92,0.00,,,0.01,Wunderground v.1.15,2013-06-28 04:30:00,
2013-06-28 00:35:00,73.3,70.8,29.76,NW,315,0.0,-999.0,92,0.00,,,0.01,Wunderground v.1.15,2013-06-28 04:35:00,
2013-06-28 00:40:00,73.3,70.8,29.76,NW,315,0.0,-999.0,92,0.00,,,0.01,Wunderground v.1.15,2013-06-28 04:40:00,
2013-06-28 00:45:00,73.4,71.3,29.76,N/A,-737280,0.0,-999.0,93,0.00,,,0.01,Wunderground v.1.15,2013-06-28 04:45:00,
2013-06-28 00:50:00,73.4,70.9,29.76,N/A,-737280,0.0,-999.0,92,0.00,,,0.01,Wunderground v.1.15,2013-06-28 04:50:00,
2013-06-28 00:55:00,73.4,70.9,29.76,N/A,-737280,0.0,-999.0,92,0.00,,,0.01,Wunderground v.1.15,2013-06-28 04:55:00,
2013-06-28 01:00:00,73.4,71.3,29.75,N/A,-737280,0.0,-999.0,93,0.00,,,0.01,Wunderground v.1.15,2013-06-28 05:00:00,
2013-06-28 01:05:00,73.5,71.4,29.75,N/A,-737280,0.0,-999.0,93,0.00,,,0.01,Wunderground v.1.15,2013-06-28 05:05:00,
2013-06-28 01:10:00,73.5,71.0,29.75,NW,315,0.0,-999.0,92,0.00,,,0.01,Wunderground v.1.15,2013-06-28 05:10:00,
2013-06-28 01:15:00,73.4,70.9,29.75,NW,315,0.0,-999.0,92,0.00,,,0.01,Wunderground v.1.15,2013-06-28 05:15:00,
2013-06-28 01:20:00,73.3,70.8,29.75,NW,315,0.0,-999.0,92,0.00,,,0.01,Wunderground v.1.15,2013-06-28 05:20:00,
2013-06-28 01:25:00,73.1,70.6,29.75,NW,315,0.0,-999.0,92,0.00,,,0.01,Wunderground v.1.15,2013-06-28 05:25:00,
2013-06-28 01:30:00,73.1,71.0,29.74,N/A,-737280,0.0,-999.0,93,0.00,,,0.01,Wunderground v.1.15,2013-06-28 05:30:00,
2013-06-28 01:35:00,73.0,70.9,29.74,NW,315,0.0,-999.0,93,0.00,,,0.01,Wunderground v.1.15,2013-06-28 05:35:00,
2013-06-28 01:40:00,73.0,70.9,29.74,N/A,-737280,0.0,-999.0,93,0.00,,,0.01,Wunderground v.1.15,2013-06-28 05:40:00,
2013-06-28 01:45:00,73.0,70.9,29.74,N/A,-737280,0.0,-999.0,93,0.00,,,0.01,Wunderground v.1.15,2013-06-28 05:45:00,
2013-06-28 01:50:00,72.9,70.8,29.74,N/A,-737280,0.0,-999.0,93,0.00,,,0.01,Wunderground v.1.15,2013-06-28 05:50:00,
2013-06-28 01:55:00,72.9,70.8,29.74,N/A,-737280,0.0,-999.0,93,0.00,,,0.01,Wunderground v.1.15,2013-06-28 05:55:00,
2013-06-28 02:00:00,72.9,70.8,29.74,NW,315,0.0,-999.0,93,0.00,,,0.01,Wunderground v.1.15,2013-06-28 06:00:00,
2013-06-28 02:05:00,72.7,70.2,29.74,NW,315,0.0,-999.0,92,0.00,,,0.01,Wunderground v.1.15,2013-06-28 06:05:00,
2013-06-28 02:10:00,72.5,70.0,29.74,NW,315,0.0,-999.0,92,0.00,,,0.01,Wunderground v.1.15,2013-06-28 06:10:00,
2013-06-28 02:15:00,72.3,70.2,29.73,NW,315,1.0,-999.0,93,0.00,,,0.01,Wunderground v.1.15,2013-06-28 06:15:00,
2013-06-28 02:20:00,72.1,70.0,29.73,NW,315,1.0,-999.0,93,0.00,,,0.01,Wunderground v.1.15,2013-06-28 06:20:00,
2013-06-28 02:25:00,72.0,69.5,29.73,NW,315,0.0,-999.0,92,0.00,,,0.01,Wunderground v.1.15,2013-06-28 06:25:00,
2013-06-28 02:30:00,71.8,69.3,29.73,NW,315,0.0,-999.0,92,0.00,,,0.01,Wunderground v.1.15,2013-06-28 06:30:00,
2013-06-28 02:35:00,71.7,69.3,29.73,N/A,-737280,0.0,-999.0,92,0.00,,,0.01,Wunderground v.1.15,2013-06-28 06:35:00,
2013-06-28 02:40:00,71.7,69.3,29.73,NW,315,0.0,-999.0,92,0.00,,,0.01,Wunderground v.1.15,2013-06-28 06:40:00,
2013-06-28 02:45:00,71.7,69.3,29.73,NW,315,0.0,-999.0,92,0.00,,,0.01,Wunderground v.1.15,2013-06-28 06:45:00,
2013-06-28 02:50:00,71.7,69.3,29.73,SE,135,1.0,-999.0,92,0.00,,,0.01,Wunderground v.1.15,2013-06-28 06:50:00,
2013-06-28 02:55:00,71.7,69.3,29.73,SE,135,0.0,-999.0,92,0.00,,,0.01,Wunderground v.1.15,2013-06-28 06:55:00,
2013-06-28 03:00:00,71.6,69.2,29.73,WNW,293,0.0,-999.0,92,0.00,,,0.01,Wunderground v.1.15,2013-06-28 07:00:00,
2013-06-28 03:05:00,71.5,69.1,29.73,N/A,-737280,0.0,-999.0,92,0.00,,,0.01,Wunderground v.1.15,2013-06-28 07:05:00,
2013-06-28 03:10:00,71.5,69.1,29.73,WNW,293,0.0,-999.0,92,0.00,,,0.01,Wunderground v.1.15,2013-06-28 07:10:00,
2013-06-28 03:15:00,71.3,68.9,29.73,N/A,-737280,0.0,-999.0,92,0.00,,,0.01,Wunderground v.1.15,2013-06-28 07:15:00,
2013-06-28 03:20:00,71.2,68.8,29.72,N/A,-737280,0.0,-999.0,92,0.00,,,0.01,Wunderground v.1.15,2013-06-28 07:20:00,
2013-06-28 03:25:00,71.1,68.7,29.72,N/A,-737280,0.0,-999.0,92,0.00,,,0.01,Wunderground v.1.15,2013-06-28 07:25:00,
2013-06-28 03:30:00,71.0,68.6,29.72,WNW,293,0.0,-999.0,92,0.00,,,0.01,Wunderground v.1.15,2013-06-28 07:30:00,
2013-06-28 03:35:00,70.9,68.5,29.72,WNW,293,0.0,-999.0,92,0.00,,,0.01,Wunderground v.1.15,2013-06-28 07:35:00,
2013-06-28 03:40:00,70.8,68.4,29.72,N/A,-737280,0.0,-999.0,92,0.00,,,0.01,Wunderground v.1.15,2013-06-28 07:40:00,
2013-06-28 03:45:00,70.8,68.4,29.73,N/A,-737280,0.0,-999.0,92,0.00,,,0.01,Wunderground v.1.15,2013-06-28 07:45:00,
2013-06-28 03:50:00,70.7,68.3,29.73,N/A,-737280,0.0,-999.0,92,0.01,,,0.01,Wunderground v.1.15,2013-06-28 07:50:00,
2013-06-28 03:55:00,70.6,68.2,29.73,N/A,-737280,0.0,-999.0,92,0.01,,,0.01,Wunderground v.1.15,2013-06-28 07:55:00,
2013-06-28 04:00:00,70.5,68.1,29.73,N/A,-737280,0.0,-999.0,92,0.01,,,0.01,Wunderground v.1.15,2013-06-28 08:00:00,
2013-06-28 04:05:00,70.4,68.0,29.72,WNW,293,0.0,-999.0,92,0.01,,,0.01,Wunderground v.1.15,2013-06-28 08:05:00,
2013-06-28 04:10:00,70.4,68.0,29.72,WNW,293,0.0,-999.0,92,0.01,,,0.01,Wunderground v.1.15,2013-06-28 08:10:00,
2013-06-28 04:15:00,70.2,67.8,29.72,WNW,293,0.0,-999.0,92,0.01,,,0.01,Wunderground v.1.15,2013-06-28 08:15:00,
2013-06-28 04:20:00,70.1,67.7,29.72,WNW,293,1.0,-999.0,92,0.01,,,0.01,Wunderground v.1.15,2013-06-28 08:20:00,
2013-06-28 04:25:00,69.9,67.5,29.72,WNW,293,0.0,-999.0,92,0.01,,,0.01,Wunderground v.1.15,2013-06-28 08:25:00,
2013-06-28 04:30:00,69.8,67.4,29.72,WNW,293,2.0,-999.0,92,0.01,,,0.01,Wunderground v.1.15,2013-06-28 08:30:00,
2013-06-28 04:35:00,69.6,67.2,29.72,WNW,293,2.0,-999.0,92,0.01,,,0.01,Wunderground v.1.15,2013-06-28 08:35:00,
2013-06-28 04:40:00,69.6,67.2,29.71,WNW,293,1.0,-999.0,92,0.01,,,0.01,Wunderground v.1.15,2013-06-28 08:40:00,
2013-06-28 04:45:00,69.6,67.2,29.71,WNW,293,0.0,-999.0,92,0.01,,,0.01,Wunderground v.1.15,2013-06-28 08:45:00,
2013-06-28 04:50:00,69.6,67.2,29.71,WNW,293,0.0,-999.0,92,0.00,,,0.01,Wunderground v.1.15,2013-06-28 08:50:00,
2013-06-28 04:55:00,69.6,67.2,29.71,N/A,-737280,0.0,-999.0,92,0.00,,,0.01,Wunderground v.1.15,2013-06-28 08:55:00,
2013-06-28 05:00:00,69.5,67.1,29.71,N/A,-737280,0.0,-999.0,92,0.00,,,0.01,Wunderground v.1.15,2013-06-28 09:00:00,
2013-06-28 05:05:00,69.5,67.1,29.71,WNW,293,0.0,-999.0,92,0.00,,,0.01,Wunderground v.1.15,2013-06-28 09:05:00,
2013-06-28 05:10:00,69.4,67.0,29.71,WNW,293,0.0,-999.0,92,0.00,,,0.01,Wunderground v.1.15,2013-06-28 09:10:00,
2013-06-28 05:15:00,69.4,67.0,29.71,WNW,293,1.0,-999.0,92,0.00,,,0.01,Wunderground v.1.15,2013-06-28 09:15:00,
2013-06-28 05:20:00,69.4,67.0,29.71,WNW,293,2.0,-999.0,92,0.00,,,0.01,Wunderground v.1.15,2013-06-28 09:20:00,
2013-06-28 05:25:00,69.4,67.0,29.71,WNW,293,2.0,-999.0,92,0.00,,,0.01,Wunderground v.1.15,2013-06-28 09:25:00,
2013-06-28 05:30:00,69.3,66.9,29.71,WNW,293,2.0,-999.0,92,0.00,,,0.01,Wunderground v.1.15,2013-06-28 09:30:00,
2013-06-28 05:35:00,69.3,66.9,29.71,WNW,293,0.0,-999.0,92,0.00,,,0.01,Wunderground v.1.15,2013-06-28 09:35:00,
2013-06-28 05:40:00,69.3,66.9,29.72,WNW,293,0.0,-999.0,92,0.00,,,0.01,Wunderground v.1.15,2013-06-28 09:40:00,
2013-06-28 05:45:00,69.3,66.9,29.72,WNW,293,1.0,-999.0,92,0.00,,,0.01,Wunderground v.1.15,2013-06-28 09:45:00,
2013-06-28 05:50:00,69.2,66.8,29.72,West,270,0.0,-999.0,92,0.00,,,0.01,Wunderground v.1.15,2013-06-28 09:50:00,
2013-06-28 05:55:00,69.1,66.7,29.72,West,270,0.0,-999.0,92,0.00,,,0.01,Wunderground v.1.15,2013-06-28 09:55:00,
2013-06-28 06:00:00,69.0,66.6,29.72,West,270,0.0,-999.0,92,0.00,,,0.01,Wunderground v.1.15,2013-06-28 10:00:00,
2013-06-28 06:05:00,69.0,66.6,29.72,West,270,0.0,-999.0,92,0.00,,,0.01,Wunderground v.1.15,2013-06-28 10:05:00,
2013-06-28 06:10:00,68.9,66.5,29.72,West,270,0.0,-999.0,92,0.00,,,0.01,Wunderground v.1.15,2013-06-28 10:10:00,
2013-06-28 06:15:00,68.9,66.5,29.72,West,270,0.0,-999.0,92,0.00,,,0.01,Wunderground v.1.15,2013-06-28 10:15:00,
2013-06-28 06:20:00,68.8,66.4,29.73,West,270,0.0,-999.0,92,0.00,,,0.01,Wunderground v.1.15,2013-06-28 10:20:00,
2013-06-28 06:25:00,68.7,66.3,29.73,West,270,0.0,-999.0,92,0.00,,,0.01,Wunderground v.1.15,2013-06-28 10:25:00,
2013-06-28 06:30:00,68.6,66.2,29.73,West,270,0.0,-999.0,92,0.00,,,0.01,Wunderground v.1.15,2013-06-28 10:30:00,
2013-06-28 06:35:00,68.6,66.2,29.73,N/A,-737280,0.0,-999.0,92,0.00,,,0.01,Wunderground v.1.15,2013-06-28 10:35:00,
2013-06-28 06:40:00,68.5,66.1,29.72,N/A,-737280,0.0,-999.0,92,0.00,,,0.01,Wunderground v.1.15,2013-06-28 10:40:00,
2013-06-28 06:45:00,68.5,66.1,29.73,N/A,-737280,0.0,-999.0,92,0.00,,,0.01,Wunderground v.1.15,2013-06-28 10:45:00,
2013-06-28 06:50:00,68.5,66.1,29.73,N/A,-737280,0.0,-999.0,92,0.00,,,0.01,Wunderground v.1.15,2013-06-28 10:50:00,
2013-06-28 06:55:00,68.4,66.0,29.72,N/A,-737280,0.0,-999.0,92,0.00,,,0.01,Wunderground v.1.15,2013-06-28 10:55:00,
2013-06-28 07:00:00,68.5,66.1,29.72,N/A,-737280,0.0,-999.0,92,0.00,,,0.01,Wunderground v.1.15,2013-06-28 11:00:00,
2013-06-28 07:05:00,68.6,66.2,29.72,N/A,-737280,0.0,-999.0,92,0.00,,,0.01,Wunderground v.1.15,2013-06-28 11:05:00,
2013-06-28 07:10:00,68.7,66.6,29.72,N/A,-737280,0.0,-999.0,93,0.00,,,0.01,Wunderground v.1.15,2013-06-28 11:10:00,
2013-06-28 07:15:00,69.0,66.6,29.72,N/A,-737280,0.0,-999.0,92,0.00,,,0.01,Wunderground v.1.15,2013-06-28 11:15:00,
2013-06-28 07:20:00,69.2,67.1,29.72,N/A,-737280,0.0,-999.0,93,0.00,,,0.01,Wunderground v.1.15,2013-06-28 11:20:00,
2013-06-28 07:25:00,69.4,67.0,29.72,West,270,0.0,-999.0,92,0.00,,,0.01,Wunderground v.1.15,2013-06-28 11:25:00,
2013-06-28 07:30:00,69.6,67.2,29.72,West,270,0.0,-999.0,92,0.00,,,0.01,Wunderground v.1.15,2013-06-28 11:30:00,
2013-06-28 07:35:00,69.9,67.5,29.72,West,270,0.0,-999.0,92,0.00,,,0.01,Wunderground v.1.15,2013-06-28 11:35:00,
2013-06-28 07:40:00,70.3,67.9,29.73,West,270,0.0,-999.0,92,0.00,,,0.01,Wunderground v.1.15,2013-06-28 11:40:00,
2013-06-28 07:45:00,70.7,68.3,29.73,West,270,0.0,-999.0,92,0.00,,,0.01,Wunderground v.1.15,2013-06-28 11:45:00,
2013-06-28 07:50:00,71.3,68.5,29.72,West,270,0.0,-999.0,91,0.00,,,0.01,Wunderground v.1.15,2013-06-28 11:50:00,
2013-06-28 07:55:00,71.7,68.9,29.72,West,270,0.0,-999.0,91,0.00,,,0.01,Wunderground v.1.15,2013-06-28 11:55:00,
2013-06-28 08:00:00,72.2,69.4,29.72,West,270,0.0,-999.0,91,0.00,,,0.01,Wunderground v.1.15,2013-06-28 12:00:00,
2013-06-28 08:05:00,72.6,69.5,29.72,West,270,0.0,-999.0,90,0.00,,,0.01,Wunderground v.1.15,2013-06-28 12:05:00,
2013-06-28 08:19:00,73.3,70.2,29.72,West,270,0.0,-999.0,90,0.00,,,0.01,Wunderground v.1.15,2013-06-28 12:19:00,
2013-06-28 08:24:00,74.4,70.6,29.72,SW,225,1.0,2.0,88,0.00,,,0.01,Wunderground v.1.15,2013-06-28 12:24:00,
2013-06-28 08:29:00,74.9,71.1,29.72,SW,225,0.0,2.0,88,0.00,,,0.01,Wunderground v.1.15,2013-06-28 12:29:00,
2013-06-28 08:34:00,75.0,70.5,29.72,SW,225,0.0,1.0,86,0.00,,,0.01,Wunderground v.1.15,2013-06-28 12:34:00,
2013-06-28 08:39:00,75.7,70.9,29.72,WNW,289,0.0,2.0,85,0.00,,,0.01,Wunderground v.1.15,2013-06-28 12:39:00,
2013-06-28 08:44:00,75.8,71.0,29.72,WSW,251,0.0,1.0,85,0.00,,,0.01,Wunderground v.1.15,2013-06-28 12:44:00,
2013-06-28 08:49:00,75.9,71.8,29.72,WSW,251,0.0,1.0,87,0.00,,,0.01,Wunderground v.1.15,2013-06-28 12:49:00,
2013-06-28 08:55:00,75.6,71.5,29.72,WSW,251,0.0,0.0,87,0.00,,,0.01,Wunderground v.1.15,2013-06-28 12:55:00,
2013-06-28 09:00:00,75.5,71.7,29.72,WSW,251,0.0,0.0,88,0.00,,,0.01,Wunderground v.1.15,2013-06-28 13:00:00,
2013-06-28 09:05:00,75.6,71.1,29.72,WSW,251,0.0,0.0,86,0.00,,,0.01,Wunderground v.1.15,2013-06-28 13:05:00,
2013-06-28 09:10:00,76.0,71.2,29.72,WSW,251,0.0,0.0,85,0.00,,,0.01,Wunderground v.1.15,2013-06-28 13:10:00,
2013-06-28 09:15:00,76.2,71.4,29.72,WSW,251,0.0,0.0,85,0.00,,,0.01,Wunderground v.1.15,2013-06-28 13:15:00,
2013-06-28 09:20:00,76.9,71.7,29.72,WSW,251,0.0,0.0,84,0.00,,,0.01,Wunderground v.1.15,2013-06-28 13:20:00,
2013-06-28 09:25:00,77.5,71.6,29.73,WSW,251,0.0,1.0,82,0.00,,,0.01,Wunderground v.1.15,2013-06-28 13:25:00,
2013-06-28 09:30:00,78.5,72.5,29.72,WSW,251,0.0,0.0,82,0.00,,,0.01,Wunderground v.1.15,2013-06-28 13:30:00,
2013-06-28 09:35:00,78.7,71.6,29.72,WSW,251,0.0,2.0,79,0.00,,,0.01,Wunderground v.1.15,2013-06-28 13:35:00,
2013-06-28 09:40:00,78.6,72.6,29.72,WSW,251,1.0,1.0,82,0.00,,,0.01,Wunderground v.1.15,2013-06-28 13:40:00,
2013-06-28 09:45:00,78.4,72.1,29.72,WSW,251,1.0,2.0,81,0.00,,,0.01,Wunderground v.1.15,2013-06-28 13:45:00,
2013-06-28 09:50:00,78.1,71.4,29.72,WSW,251,0.0,1.0,80,0.00,,,0.01,Wunderground v.1.15,2013-06-28 13:50:00,
2013-06-28 09:55:00,78.0,72.1,29.71,WSW,251,0.0,1.0,82,0.00,,,0.01,Wunderground v.1.15,2013-06-28 13:55:00,
2013-06-28 10:00:00,78.2,73.0,29.71,WSW,251,1.0,1.0,84,0.00,,,0.01,Wunderground v.1.15,2013-06-28 14:00:00,
2013-06-28 10:05:00,79.3,73.3,29.71,WSW,238,0.0,2.0,82,0.00,,,0.01,Wunderground v.1.15,2013-06-28 14:05:00,
2013-06-28 10:10:00,79.7,72.2,29.71,WSW,257,0.0,2.0,78,0.00,,,0.01,Wunderground v.1.15,2013-06-28 14:10:00,
2013-06-28 10:15:00,80.2,73.5,29.71,West,260,2.0,2.0,80,0.00,,,0.01,Wunderground v.1.15,2013-06-28 14:15:00,
2013-06-28 10:20:00,80.8,70.9,29.71,SW,234,1.0,3.0,72,0.00,,,0.01,Wunderground v.1.15,2013-06-28 14:20:00,
2013-06-28 10:25:00,81.3,72.6,29.71,SW,234,2.0,3.0,75,0.00,,,0.01,Wunderground v.1.15,2013-06-28 14:25:00,
2013-06-28 10:30:00,81.0,72.3,29.70,SW,234,0.0,2.0,75,0.00,,,0.01,Wunderground v.1.15,2013-06-28 14:30:00,
2013-06-28 10:35:00,81.5,73.2,29.70,SW,234,0.0,3.0,76,0.00,,,0.01,Wunderground v.1.15,2013-06-28 14:35:00,
2013-06-28 10:40:00,82.3,73.6,29.70,SW,223,3.0,4.0,75,0.00,,,0.01,Wunderground v.1.15,2013-06-28 14:40:00,
2013-06-28 10:45:00,82.4,73.7,29.70,SSW,205,0.0,4.0,75,0.00,,,0.01,Wunderground v.1.15,2013-06-28 14:45:00,
2013-06-28 10:50:00,82.9,75.3,29.70,South,177,3.0,3.0,78,0.00,,,0.01,Wunderground v.1.15,2013-06-28 14:50:00,
2013-06-28 10:55:00,82.6,73.1,29.70,SSE,161,1.0,5.0,73,0.00,,,0.01,Wunderground v.1.15,2013-06-28 14:55:00,
2013-06-28 11:00:00,83.5,70.9,29.71,SSW,198,3.0,5.0,66,0.00,,,0.01,Wunderground v.1.15,2013-06-28 15:00:00,
2013-06-28 11:05:00,83.4,71.7,29.70,SSW,197,1.0,6.0,68,0.00,,,0.01,Wunderground v.1.15,2013-06-28 15:05:00,
2013-06-28 11:11:00,84.0,71.9,29.70,SW,222,3.0,6.0,67,0.00,,,0.01,Wunderground v.1.15,2013-06-28 15:11:00,
2013-06-28 11:16:00,84.1,71.5,29.70,SSW,204,4.0,7.0,66,0.00,,,0.01,Wunderground v.1.15,2013-06-28 15:16:00,
2013-06-28 11:21:00,84.1,70.6,29.71,SSW,198,1.0,4.0,64,0.00,,,0.01,Wunderground v.1.15,2013-06-28 15:21:00,
2013-06-28 11:26:00,84.6,71.5,29.70,SW,225,0.0,4.0,65,0.00,,,0.01,Wunderground v.1.15,2013-06-28 15:26:00,
2013-06-28 11:31:00,84.6,71.5,29.70,SW,225,3.0,6.0,65,0.00,,,0.01,Wunderground v.1.15,2013-06-28 15:31:00,
2013-06-28 11:36:00,84.7,73.0,29.70,SSW,202,1.0,7.0,68,0.00,,,0.01,Wunderground v.1.15,2013-06-28 15:36:00,
2013-06-28 11:41:00,84.9,71.4,29.70,SW,214,2.0,5.0,64,0.00,,,0.01,Wunderground v.1.15,2013-06-28 15:41:00,
2013-06-28 11:46:00,85.7,73.0,29.70,WSW,246,3.0,5.0,66,0.00,,,0.01,Wunderground v.1.15,2013-06-28 15:46:00,
2013-06-28 11:51:00,85.5,70.0,29.70,SW,220,4.0,6.0,60,0.00,,,0.01,Wunderground v.1.15,2013-06-28 15:51:00,
2013-06-28 11:56:00,85.3,70.8,29.70,West,270,3.0,6.0,62,0.00,,,0.01,Wunderground v.1.15,2013-06-28 15:56:00,
2013-06-28 12:01:00,85.5,71.9,29.70,West,263,0.0,4.0,64,0.00,,,0.01,Wunderground v.1.15,2013-06-28 16:01:00,
2013-06-28 12:06:00,85.6,72.9,29.70,WSW,238,4.0,5.0,66,0.00,,,0.01,Wunderground v.1.15,2013-06-28 16:06:00,
2013-06-28 12:11:00,86.0,74.2,29.69,WSW,252,0.0,6.0,68,0.00,,,0.01,Wunderground v.1.15,2013-06-28 16:11:00,
2013-06-28 12:16:00,85.8,72.7,29.69,West,275,1.0,7.0,65,0.00,,,0.01,Wunderground v.1.15,2013-06-28 16:16:00,
2013-06-28 12:21:00,86.0,74.2,29.69,SW,232,3.0,3.0,68,0.00,,,0.01,Wunderground v.1.15,2013-06-28 16:21:00,
2013-06-28 12:26:00,86.2,72.6,29.69,West,281,3.0,7.0,64,0.00,,,0.01,Wunderground v.1.15,2013-06-28 16:26:00,
2013-06-28 12:31:00,86.6,74.3,29.69,WNW,291,0.0,7.0,67,0.00,,,0.01,Wunderground v.1.15,2013-06-28 16:31:00,
2013-06-28 12:36:00,86.2,74.4,29.69,WSW,250,3.0,7.0,68,0.00,,,0.01,Wunderground v.1.15,2013-06-28 16:36:00,
2013-06-28 12:41:00,86.7,75.7,29.68,WNW,296,6.0,6.0,70,0.00,,,0.01,Wunderground v.1.15,2013-06-28 16:41:00,
2013-06-28 12:46:00,87.7,74.9,29.68,SW,221,0.0,8.0,66,0.00,,,0.01,Wunderground v.1.15,2013-06-28 16:46:00,
2013-06-28 12:51:00,88.6,73.9,29.68,WSW,245,3.0,9.0,62,0.00,,,0.01,Wunderground v.1.15,2013-06-28 16:51:00,
2013-06-28 12:56:00,88.7,73.5,29.68,West,270,8.0,9.0,61,0.00,,,0.01,Wunderground v.1.15,2013-06-28 16:56:00,
2013-06-28 13:01:00,88.6,73.9,29.68,West,280,9.0,9.0,62,0.00,,,0.01,Wunderground v.1.15,2013-06-28 17:01:00,
2013-06-28 13:06:00,88.4,72.7,29.68,West,277,3.0,10.0,60,0.00,,,0.01,Wunderground v.1.15,2013-06-28 17:06:00,
2013-06-28 13:11:00,88.6,74.4,29.67,SSW,213,7.0,10.0,63,0.00,,,0.01,Wunderground v.1.15,2013-06-28 17:11:00,
2013-06-28 13:16:00,88.8,75.5,29.68,SW,221,9.0,10.0,65,0.00,,,0.01,Wunderground v.1.15,2013-06-28 17:16:00,
2013-06-28 13:21:00,88.8,72.1,29.67,SW,220,8.0,14.0,58,0.00,,,0.01,Wunderground v.1.15,2013-06-28 17:21:00,
2013-06-28 13:26:00,89.3,74.6,29.67,SW,227,4.0,14.0,62,0.00,,,0.01,Wunderground v.1.15,2013-06-28 17:26:00,
2013-06-28 13:31:00,89.0,74.8,29.67,SW,232,10.0,10.0,63,0.00,,,0.01,Wunderground v.1.15,2013-06-28 17:31:00,
2013-06-28 13:36:00,89.2,74.0,29.67,West,269,7.0,10.0,61,0.00,,,0.01,Wunderground v.1.15,2013-06-28 17:36:00,
2013-06-28 13:42:00,89.0,72.8,29.67,SW,226,9.0,12.0,59,0.00,,,0.01,Wunderground v.1.15,2013-06-28 17:42:00,
2013-06-28 13:47:00,89.3,73.1,29.67,WSW,252,6.0,12.0,59,0.00,,,0.01,Wunderground v.1.15,2013-06-28 17:47:00,
2013-06-28 13:52:00,89.3,72.1,29.66,WSW,248,5.0,8.0,57,0.00,,,0.01,Wunderground v.1.15,2013-06-28 17:52:00,
2013-06-28 13:57:00,89.7,74.0,29.66,WSW,238,4.0,11.0,60,0.00,,,0.01,Wunderground v.1.15,2013-06-28 17:57:00,
2013-06-28 14:02:00,89.9,73.1,29.66,SW,225,8.0,11.0,58,0.00,,,0.01,Wunderground v.1.15,2013-06-28 18:02:00,
2013-06-28 14:07:00,89.7,73.5,29.66,WSW,254,7.0,11.0,59,0.00,,,0.01,Wunderground v.1.15,2013-06-28 18:07:00,
2013-06-28 14:12:00,89.8,72.5,29.65,SW,225,11.0,14.0,57,0.00,,,0.01,Wunderground v.1.15,2013-06-28 18:12:00,
2013-06-28 14:17:00,89.3,73.1,29.65,WSW,256,9.0,14.0,59,0.00,,,0.01,Wunderground v.1.15,2013-06-28 18:17:00,
2013-06-28 14:22:00,89.5,73.3,29.65,WSW,241,8.0,12.0,59,0.00,,,0.01,Wunderground v.1.15,2013-06-28 18:22:00,
2013-06-28 14:27:00,90.3,74.5,29.65,WSW,245,7.0,12.0,60,0.00,,,0.01,Wunderground v.1.15,2013-06-28 18:27:00,
2013-06-28 14:32:00,90.4,73.1,29.64,SW,232,7.0,13.0,57,0.00,,,0.01,Wunderground v.1.15,2013-06-28 18:32:00,
2013-06-28 14:37:00,90.1,73.3,29.64,WSW,243,5.0,13.0,58,0.00,,,0.01,Wunderground v.1.15,2013-06-28 18:37:00,
2013-06-28 14:42:00,90.2,74.4,29.64,SW,225,10.0,10.0,60,0.00,,,0.01,Wunderground v.1.15,2013-06-28 18:42:00,
2013-06-28 14:47:00,90.4,74.1,29.63,WSW,252,4.0,12.0,59,0.00,,,0.01,Wunderground v.1.15,2013-06-28 18:47:00,
2013-06-28 14:52:00,90.5,74.2,29.63,West,279,6.0,9.0,59,0.00,,,0.01,Wunderground v.1.15,2013-06-28 18:52:00,
2013-06-28 14:57:00,90.6,75.3,29.62,SSW,196,3.0,11.0,61,0.00,,,0.01,Wunderground v.1.15,2013-06-28 18:57:00,
2013-06-28 15:02:00,90.5,74.2,29.62,WSW,257,3.0,7.0,59,0.00,,,0.01,Wunderground v.1.15,2013-06-28 19:02:00,
2013-06-28 15:07:00,90.8,73.5,29.62,WSW,238,5.0,8.0,57,0.00,,,0.01,Wunderground v.1.15,2013-06-28 19:07:00,
2013-06-28 15:12:00,90.9,72.5,29.61,WSW,248,7.0,9.0,55,0.00,,,0.01,Wunderground v.1.15,2013-06-28 19:12:00,
2013-06-28 15:17:00,91.2,74.4,29.61,WSW,253,3.0,9.0,58,0.00,,,0.01,Wunderground v.1.15,2013-06-28 19:17:00,
2013-06-28 15:22:00,90.8,73.5,29.61,West,263,5.0,8.0,57,0.00,,,0.01,Wunderground v.1.15,2013-06-28 19:22:00,
2013-06-28 15:27:00,91.1,73.7,29.61,WSW,256,6.0,8.0,57,0.00,,,0.01,Wunderground v.1.15,2013-06-28 19:27:00,
2013-06-28 15:32:00,91.2,74.4,29.61,SSW,213,9.0,11.0,58,0.00,,,0.01,Wunderground v.1.15,2013-06-28 19:32:00,
2013-06-28 15:37:00,89.7,71.9,29.61,SW,231,2.0,11.0,56,0.00,,,0.01,Wunderground v.1.15,2013-06-28 19:37:00,
2013-06-28 15:42:00,89.1,73.9,29.61,SW,230,8.0,8.0,61,0.00,,,0.01,Wunderground v.1.15,2013-06-28 19:42:00,
2013-06-28 15:47:00,89.4,73.7,29.60,SW,232,5.0,8.0,60,0.00,,,0.01,Wunderground v.1.15,2013-06-28 19:47:00,
2013-06-28 15:52:00,88.9,73.2,29.61,SW,232,3.0,8.0,60,0.00,,,0.01,Wunderground v.1.15,2013-06-28 19:52:00,
2013-06-28 15:57:00,88.4,74.7,29.60,SW,227,3.0,8.0,64,0.00,,,0.01,Wunderground v.1.15,2013-06-28 19:57:00,
2013-06-28 16:02:00,88.2,74.5,29.60,SW,232,2.0,4.0,64,0.00,,,0.01,Wunderground v.1.15,2013-06-28 20:02:00,
2013-06-28 16:07:00,88.9,73.2,29.60,WSW,243,5.0,6.0,60,0.00,,,0.01,Wunderground v.1.15,2013-06-28 20:07:00,
2013-06-28 16:12:00,89.9,74.6,29.60,WSW,243,4.0,7.0,61,0.00,,,0.01,Wunderground v.1.15,2013-06-28 20:12:00,
2013-06-28 16:17:00,90.1,74.3,29.59,SW,229,5.0,8.0,60,0.00,,,0.01,Wunderground v.1.15,2013-06-28 20:17:00,
2013-06-28 16:22:00,90.1,72.8,29.59,SW,228,5.0,5.0,57,0.00,,,0.01,Wunderground v.1.15,2013-06-28 20:22:00,
2013-06-28 16:27:00,90.5,73.2,29.59,SW,234,3.0,6.0,57,0.00,,,0.01,Wunderground v.1.15,2013-06-28 20:27:00,
2013-06-28 16:32:00,90.7,72.3,29.59,SSW,203,3.0,5.0,55,0.00,,,0.01,Wunderground v.1.15,2013-06-28 20:32:00,
2013-06-28 16:37:00,91.0,73.7,29.58,SW,233,3.0,6.0,57,0.00,,,0.01,Wunderground v.1.15,2013-06-28 20:37:00,
2013-06-28 16:42:00,91.1,72.1,29.58,WSW,248,3.0,7.0,54,0.00,,,0.01,Wunderground v.1.15,2013-06-28 20:42:00,
2013-06-28 16:47:00,90.9,74.1,29.58,West,271,1.0,7.0,58,0.00,,,0.01,Wunderground v.1.15,2013-06-28 20:47:00,
2013-06-28 16:52:00,91.4,73.0,29.58,SW,220,4.0,6.0,55,0.00,,,0.01,Wunderground v.1.15,2013-06-28 20:52:00,
2013-06-28 16:57:00,91.8,73.9,29.58,WSW,247,3.0,7.0,56,0.00,,,0.01,Wunderground v.1.15,2013-06-28 20:57:00,
2013-06-28 17:02:00,91.8,73.3,29.58,SW,234,0.0,5.0,55,0.00,,,0.01,Wunderground v.1.15,2013-06-28 21:02:00,
2013-06-28 17:07:00,91.5,72.5,29.58,SW,231,2.0,6.0,54,0.00,,,0.01,Wunderground v.1.15,2013-06-28 21:07:00,
2013-06-28 17:12:00,91.1,70.5,29.58,SW,227,5.0,6.0,51,0.00,,,0.01,Wunderground v.1.15,2013-06-28 21:12:00,
2013-06-28 17:17:00,90.4,70.4,29.58,SW,232,5.0,7.0,52,0.00,,,0.01,Wunderground v.1.15,2013-06-28 21:17:00,
2013-06-28 17:22:00,90.0,70.0,29.58,SW,227,5.0,10.0,52,0.00,,,0.01,Wunderground v.1.15,2013-06-28 21:22:00,
2013-06-28 17:27:00,89.6,70.8,29.58,WSW,238,5.0,10.0,54,0.00,,,0.01,Wunderground v.1.15,2013-06-28 21:27:00,
2013-06-28 17:32:00,89.3,71.5,29.58,SW,224,2.0,7.0,56,0.00,,,0.01,Wunderground v.1.15,2013-06-28 21:32:00,
2013-06-28 17:37:00,89.1,71.9,29.58,SW,231,2.0,7.0,57,0.00,,,0.01,Wunderground v.1.15,2013-06-28 21:37:00,
2013-06-28 17:42:00,88.6,70.9,29.58,SW,230,3.0,5.0,56,0.00,,,0.01,Wunderground v.1.15,2013-06-28 21:42:00,
2013-06-28 17:47:00,88.4,71.2,29.58,SW,234,5.0,6.0,57,0.00,,,0.01,Wunderground v.1.15,2013-06-28 21:47:00,
2013-06-28 17:52:00,88.1,71.5,29.57,SW,223,2.0,5.0,58,0.00,,,0.01,Wunderground v.1.15,2013-06-28 21:52:00,
2013-06-28 17:57:00,87.9,70.8,29.57,SW,215,2.0,6.0,57,0.00,,,0.01,Wunderground v.1.15,2013-06-28 21:57:00,
2013-06-28 18:02:00,87.7,71.1,29.57,SW,230,6.0,6.0,58,0.00,,,0.01,Wunderground v.1.15,2013-06-28 22:02:00,
2013-06-28 18:07:00,87.4,71.3,29.57,WSW,238,2.0,6.0,59,0.00,,,0.01,Wunderground v.1.15,2013-06-28 22:07:00,
2013-06-28 18:12:00,87.1,71.5,29.57,SW,219,3.0,6.0,60,0.00,,,0.01,Wunderground v.1.15,2013-06-28 22:12:00,
2013-06-28 18:17:00,86.8,71.7,29.57,WSW,244,2.0,6.0,61,0.00,,,0.01,Wunderground v.1.15,2013-06-28 22:17:00,
2013-06-28 18:22:00,86.5,71.5,29.56,SW,222,5.0,6.0,61,0.00,,,0.01,Wunderground v.1.15,2013-06-28 22:22:00,
2013-06-28 18:27:00,86.3,71.3,29.57,SW,221,3.0,8.0,61,0.00,,,0.01,Wunderground v.1.15,2013-06-28 22:27:00,
2013-06-28 18:32:00,86.0,71.5,29.57,SW,232,4.0,6.0,62,0.00,,,0.01,Wunderground v.1.15,2013-06-28 22:32:00,
2013-06-28 18:37:00,85.6,71.1,29.57,WSW,238,3.0,9.0,62,0.00,,,0.01,Wunderground v.1.15,2013-06-28 22:37:00,
2013-06-28 18:42:00,85.5,71.0,29.57,SW,215,5.0,8.0,62,0.00,,,0.01,Wunderground v.1.15,2013-06-28 22:42:00,
2013-06-28 18:47:00,85.4,70.9,29.57,SW,225,3.0,8.0,62,0.00,,,0.01,Wunderground v.1.15,2013-06-28 22:47:00,
2013-06-28 18:52:00,85.4,70.9,29.56,WSW,243,4.0,8.0,62,0.00,,,0.01,Wunderground v.1.15,2013-06-28 22:52:00,
2013-06-28 18:57:00,85.5,71.5,29.57,SW,231,4.0,8.0,63,0.00,,,0.01,Wunderground v.1.15,2013-06-28 22:57:00,
2013-06-28 19:02:00,85.5,71.5,29.57,SW,228,6.0,6.0,63,0.00,,,0.01,Wunderground v.1.15,2013-06-28 23:02:00,
2013-06-28 19:07:00,85.4,71.4,29.57,WSW,248,3.0,9.0,63,0.00,,,0.01,Wunderground v.1.15,2013-06-28 23:07:00,
2013-06-28 19:12:00,85.3,71.7,29.58,WSW,238,3.0,6.0,64,0.00,,,0.01,Wunderground v.1.15,2013-06-28 23:12:00,
2013-06-28 19:18:00,85.2,71.6,29.58,SW,221,7.0,9.0,64,0.00,,,0.01,Wunderground v.1.15,2013-06-28 23:18:00,
2013-06-28 19:23:00,85.3,72.6,29.58,WSW,250,6.0,8.0,66,0.00,,,0.01,Wunderground v.1.15,2013-06-28 23:23:00,
2013-06-28 19:27:00,85.3,72.2,29.59,WSW,240,4.0,8.0,65,0.00,,,0.01,Wunderground v.1.15,2013-06-28 23:27:00,
2013-06-28 19:32:00,85.3,72.2,29.59,WSW,243,8.0,10.0,65,0.00,,,0.01,Wunderground v.1.15,2013-06-28 23:32:00,
2013-06-28 19:38:00,85.2,72.6,29.59,SW,229,4.0,10.0,66,0.00,,,0.01,Wunderground v.1.15,2013-06-28 23:38:00,
2013-06-28 19:43:00,85.2,72.6,29.58,SW,226,5.0,8.0,66,0.00,,,0.01,Wunderground v.1.15,2013-06-28 23:43:00,
2013-06-28 19:48:00,85.3,72.6,29.59,SW,229,2.0,8.0,66,0.00,,,0.01,Wunderground v.1.15,2013-06-28 23:48:00,
2013-06-28 19:53:00,85.2,72.6,29.58,WSW,240,6.0,10.0,66,0.00,,,0.01,Wunderground v.1.15,2013-06-28 23:53:00,
2013-06-28 19:58:00,84.9,72.3,29.59,SW,234,3.0,10.0,66,0.00,,,0.01,Wunderground v.1.15,2013-06-28 23:58:00,
2013-06-28 20:03:00,84.7,72.5,29.59,WSW,242,3.0,6.0,67,0.00,,,0.01,Wunderground v.1.15,2013-06-29 00:03:00,
2013-06-28 20:08:00,84.5,72.8,29.59,SW,230,5.0,7.0,68,0.00,,,0.01,Wunderground v.1.15,2013-06-29 00:08:00,
2013-06-28 20:13:00,84.0,72.3,29.59,WSW,249,3.0,8.0,68,0.00,,,0.01,Wunderground v.1.15,2013-06-29 00:13:00,
2013-06-28 20:18:00,83.7,72.4,29.59,SW,234,3.0,8.0,69,0.00,,,0.01,Wunderground v.1.15,2013-06-29 00:18:00,
2013-06-28 20:23:00,83.6,72.3,29.59,WSW,256,6.0,9.0,69,0.00,,,0.01,Wunderground v.1.15,2013-06-29 00:23:00,
2013-06-28 20:28:00,83.4,72.2,29.60,SW,226,8.0,11.0,69,0.00,,,0.01,Wunderground v.1.15,2013-06-29 00:28:00,
2013-06-28 20:33:00,83.4,72.2,29.60,SW,234,7.0,13.0,69,0.00,,,0.01,Wunderground v.1.15,2013-06-29 00:33:00,
2013-06-28 20:38:00,83.3,72.1,29.60,SW,224,11.0,15.0,69,0.00,,,0.01,Wunderground v.1.15,2013-06-29 00:38:00,
2013-06-28 20:43:00,83.0,72.2,29.60,SW,222,9.0,13.0,70,0.00,,,0.01,Wunderground v.1.15,2013-06-29 00:43:00,
2013-06-28 20:48:00,82.6,72.2,29.60,SSW,212,7.0,13.0,71,0.00,,,0.01,Wunderground v.1.15,2013-06-29 00:48:00,
2013-06-28 20:53:00,82.2,71.4,29.60,SW,215,5.0,11.0,70,0.00,,,0.01,Wunderground v.1.15,2013-06-29 00:53:00,
2013-06-28 20:58:00,82.1,71.3,29.60,SW,219,6.0,13.0,70,0.00,,,0.01,Wunderground v.1.15,2013-06-29 00:58:00,
2013-06-28 21:03:00,81.7,70.5,29.60,SSW,198,9.0,11.0,69,0.00,,,0.01,Wunderground v.1.15,2013-06-29 01:03:00,
2013-06-28 21:08:00,81.1,70.4,29.60,SSW,213,14.0,15.0,70,0.00,,,0.01,Wunderground v.1.15,2013-06-29 01:08:00,
2013-06-28 21:13:00,80.5,70.2,29.60,SSW,213,4.0,14.0,71,0.00,,,0.01,Wunderground v.1.15,2013-06-29 01:13:00,
2013-06-28 21:19:00,79.8,70.0,29.60,WSW,248,6.0,14.0,72,0.00,,,0.01,Wunderground v.1.15,2013-06-29 01:19:00,
2013-06-28 21:24:00,79.2,70.2,29.60,WSW,244,4.0,8.0,74,0.00,,,0.01,Wunderground v.1.15,2013-06-29 01:24:00,
2013-06-28 21:29:00,78.7,69.7,29.60,WSW,252,4.0,10.0,74,0.00,,,0.01,Wunderground v.1.15,2013-06-29 01:29:00,
2013-06-28 21:34:00,78.3,69.7,29.60,West,265,7.0,10.0,75,0.00,,,0.01,Wunderground v.1.15,2013-06-29 01:34:00,
2013-06-28 21:39:00,77.9,69.7,29.60,WSW,239,4.0,10.0,76,0.00,,,0.01,Wunderground v.1.15,2013-06-29 01:39:00,
2013-06-28 21:44:00,77.7,69.9,29.60,WSW,239,4.0,6.0,77,0.00,,,0.01,Wunderground v.1.15,2013-06-29 01:44:00,
2013-06-28 21:49:00,77.5,69.7,29.60,WSW,254,4.0,9.0,77,0.00,,,0.01,Wunderground v.1.15,2013-06-29 01:49:00,
2013-06-28 21:54:00,77.4,69.6,29.60,WSW,254,3.0,9.0,77,0.00,,,0.01,Wunderground v.1.15,2013-06-29 01:54:00,
2013-06-28 21:59:00,77.2,69.8,29.61,WSW,250,4.0,9.0,78,0.00,,,0.01,Wunderground v.1.15,2013-06-29 01:59:00,
2013-06-28 22:04:00,77.1,69.7,29.61,WSW,257,1.0,5.0,78,0.00,,,0.01,Wunderground v.1.15,2013-06-29 02:04:00,
2013-06-28 22:09:00,76.9,69.5,29.61,West,259,3.0,5.0,78,0.00,,,0.01,Wunderground v.1.15,2013-06-29 02:09:00,
2013-06-28 22:14:00,76.8,69.4,29.61,West,275,7.0,10.0,78,0.00,,,0.01,Wunderground v.1.15,2013-06-29 02:14:00,
2013-06-28 22:19:00,76.7,69.7,29.60,WSW,257,5.0,12.0,79,0.00,,,0.01,Wunderground v.1.15,2013-06-29 02:19:00,
2013-06-28 22:24:00,76.5,69.5,29.60,West,267,7.0,11.0,79,0.00,,,0.01,Wunderground v.1.15,2013-06-29 02:24:00,
2013-06-28 22:29:00,76.3,69.7,29.61,West,260,5.0,11.0,80,0.00,,,0.01,Wunderground v.1.15,2013-06-29 02:29:00,
2013-06-28 22:30:00,76.4,69.8,29.61,WSW,248,6.0,-999.0,80,0.00,,,0.01,Wunderground v.1.15,2013-06-29 02:30:00,
2013-06-28 22:35:00,76.2,69.6,29.61,WSW,248,6.0,-999.0,80,0.00,,,0.01,Wunderground v.1.15,2013-06-29 02:35:00,
2013-06-28 22:40:00,76.0,69.4,29.61,WSW,248,6.0,-999.0,80,0.00,,,0.01,Wunderground v.1.15,2013-06-29 02:40:00,
2013-06-28 22:45:00,75.9,69.3,29.61,WSW,248,6.0,-999.0,80,0.00,,,0.01,Wunderground v.1.15,2013-06-29 02:45:00,
2013-06-28 22:50:00,75.8,69.2,29.61,WSW,248,6.0,-999.0,80,0.00,,,0.01,Wunderground v.1.15,2013-06-29 02:50:00,
2013-06-28 22:55:00,75.7,69.1,29.61,WSW,248,6.0,-999.0,80,0.00,,,0.01,Wunderground v.1.15,2013-06-29 02:55:00,
2013-06-28 23:00:00,75.6,69.0,29.61,WSW,248,8.0,-999.0,80,0.00,,,0.01,Wunderground v.1.15,2013-06-29 03:00:00,
2013-06-28 23:05:00,75.6,69.0,29.62,WSW,248,6.0,-999.0,80,0.00,,,0.01,Wunderground v.1.15,2013-06-29 03:05:00,
2013-06-28 23:10:00,75.6,69.0,29.62,WSW,248,5.0,-999.0,80,0.00,,,0.01,Wunderground v.1.15,2013-06-29 03:10:00,
2013-06-28 23:15:00,75.7,68.7,29.62,SW,225,7.0,-999.0,79,0.00,,,0.01,Wunderground v.1.15,2013-06-29 03:15:00,
2013-06-28 23:20:00,75.8,68.8,29.62,SW,225,5.0,-999.0,79,0.00,,,0.01,Wunderground v.1.15,2013-06-29 03:20:00,
2013-06-28 23:25:00,75.8,68.8,29.62,SW,225,6.0,-999.0,79,0.00,,,0.01,Wunderground v.1.15,2013-06-29 03:25:00,
2013-06-28 23:30:00,75.8,68.8,29.62,WSW,248,5.0,-999.0,79,0.00,,,0.01,Wunderground v.1.15,2013-06-29 03:30:00,
2013-06-28 23:35:00,75.6,69.0,29.62,SW,225,5.0,-999.0,80,0.00,,,0.01,Wunderground v.1.15,2013-06-29 03:35:00,
2013-06-28 23:40:00,75.4,68.8,29.62,SW,225,5.0,-999.0,80,0.00,,,0.01,Wunderground v.1.15,2013-06-29 03:40:00,
2013-06-28 23:45:00,75.2,69.0,29.63,WSW,248,3.0,-999.0,81,0.00,,,0.01,Wunderground v.1.15,2013-06-29 03:45:00,
2013-06-28 23:50:00,74.9,69.0,29.63,SW,225,3.0,-999.0,82,0.00,,,0.01,Wunderground v.1.15,2013-06-29 03:50:00,
2013-06-28 23:55:00,74.8,68.9,29.63,WSW,248,5.0,-999.0,82,0.00,,,0.01,Wunderground v.1.15,2013-06-29 03:55:00,